Location: ????????
(55.0559°N, 39.1270°E)
Time: 17:50:42
(UTC+00:00)

NOSS 0 Rocket - Pass Details

Date: 15 November 2025
Orbit: 934 x 953 km, 70.0° (Epoch: 14 December)

Event Time Altitude Azimuth Distance (km) Brightness Sun altitude
Exits shadow 03:04:18 22° 266° (W) 1,920 5.0 -15.6°
Maximum altitude 03:07:44 40° 322° (NW) 1,356 4.4 -15.1°
Drops below altitude 10° 03:13:32 10° 32° (NNE) 2,668 6.5 -14.3°
Sets 03:16:15 0° 40° (NE) 3,618 7.4 -13.9°
